Theta_e
301 301 299 299 296 296 296 295 293 293 293 294 295 294 294 293 292 291 290 292 291 290 289 290 291 294 294 294 294 294 294 294 290 293 295 297 297 297 298 299 301 303 307
300 299 299 299 296 295 294 294 293 292 293 293 295 294 294 293 292 291 291 291 290 289 289 288 289 294 293 294 294 293 294 295 293 291 295 296 297 298 298 298 299 302 304
299 298 298 296 294 293 292 291 292 292 292 293 294 293 292 293 291 292 291 291 289 288 287 287 289 292 292 293 295 295 296 297 297 295 294 296 297 298 298 299 299 299 303
297 296 296 294 294 293 292 291 292 292 292 292 293 292 292 292 291 292 291 289 288 288 288 288 289 292 292 295 296 296 296 295 295 295 294 294 295 298 298 297 296 299 299
297 296 295 295 294 293 293 293 292 292 292 292 292 291 290 291 292 290 289 288 286 286 287 288 289 294 298 298 296 295 296 295 294 294 293 294 295 295 295 297 297 298 300
295 295 295 296 295 294 292 292 291 291 291 291 291 290 288 291 295 296 293 286 286 285 284 286 288 292 293 297 298 299 298 295 293 293 293 293 294 295 298 297 297 296 296
295 296 296 295 295 294 293 292 291 291 290 290 290 290 288 287 294 296 296 287 285 285 284 285 286 290 292 291 296 297 296 298 298 296 294 294 294 296 299 299 297 297 298
295 296 296 296 294 294 293 292 291 290 290 290 290 290 288 288 295 296 296 288 285 284 284 285 285 287 289 292 293 291 293 294 295 296 296 296 297 297 299 302 299 299 302
295 294 296 296 294 293 292 291 291 289 289 290 290 290 288 288 293 295 294 287 285 284 285 286 287 289 292 294 290 289 291 293 297 298 299 298 297 298 301 302 298 298 297
295 296 296 296 294 292 291 290 290 289 290 291 291 290 292 289 292 294 293 287 283 284 284 285 290 291 293 293 289 289 289 290 292 294 296 296 296 299 303 303 301 298 300
297 297 297 296 294 293 291 290 290 289 290 290 290 290 289 288 288 293 294 287 284 283 284 285 287 291 292 292 292 289 289 292 293 293 294 294 294 296 300 303 302 301 300
297 296 296 295 295 295 292 291 291 289 288 288 287 288 289 287 290 291 292 292 291 283 284 285 286 291 291 291 290 291 291 292 292 292 292 292 292 294 298 303 304 303 305
295 294 293 294 295 294 291 291 290 289 287 287 286 285 286 284 283 290 290 290 290 287 285 288 293 291 290 289 290 290 290 289 290 289 290 291 293 295 299 303 307 306 306
294 293 293 292 293 293 292 291 290 289 288 288 287 284 283 280 281 283 282 282 286 286 287 284 289 290 289 289 288 288 288 288 290 289 290 292 293 294 295 300 303 304 303
294 295 293 294 293 293 292 292 292 291 290 289 288 286 284 283 284 286 286 285 285 286 288 283 282 282 284 285 286 287 287 288 288 289 291 290 290 292 292 297 300 301 300
296 295 294 296 297 296 293 293 293 293 293 291 291 289 286 288 289 289 290 290 289 289 283 281 280 281 282 284 285 286 286 287 287 289 289 290 290 290 291 293 297 298 297
297 298 298 298 298 297 297 296 295 296 292 292 290 290 290 289 289 289 289 289 287 286 281 281 281 282 282 284 284 286 285 286 288 288 288 289 290 290 291 292 294 296 296
298 298 297 296 299 299 298 297 295 291 288 288 289 288 289 288 288 288 288 286 282 282 280 280 281 282 283 283 284 285 286 286 287 286 286 287 288 290 290 290 292 292 294
299 298 297 296 298 299 297 297 295 291 286 284 284 285 284 287 287 287 287 281 280 280 280 280 281 282 283 284 285 286 286 286 286 286 285 285 286 288 289 290 290 289 290
298 297 296 298 294 293 296 292 286 284 283 283 282 281 281 281 281 281 281 281 280 280 280 280 282 282 283 284 284 286 286 286 286 285 283 284 285 286 287 289 290 289 290
294 296 289 292 293 295 289 285 284 283 282 282 281 282 282 280 280 280 280 281 281 281 280 280 281 282 283 283 284 287 286 285 285 284 283 283 283 282 285 288 290 289 289
292 292 292 294 293 287 285 284 283 283 283 282 281 282 283 281 281 281 281 281 281 281 281 281 282 282 282 282 284 286 286 285 284 283 283 283 282 282 283 286 288 289 288
291 291 291 289 287 285 284 283 283 283 282 282 281 282 282 281 281 281 281 281 281 281 282 281 281 282 282 283 285 286 285 285 284 284 283 283 282 282 282 283 286 287 288
291 290 289 286 285 284 284 283 283 283 283 283 282 282 281 281 281 282 281 281 281 281 281 281 281 282 282 282 283 284 287 286 284 284 284 283 282 281 281 281 283 285 286
291 290 287 286 285 284 284 284 283 283 283 283 283 282 281 281 281 282 282 281 280 280 281 281 280 281 281 281 282 285 285 284 284 284 283 283 282 281 281 280 282 284 285
291 290 287 286 285 286 285 284 283 283 282 283 283 282 281 281 281 281 281 280 280 280 280 281 280 280 280 281 281 282 283 283 284 283 282 282 281 281 281 280 283 283 284
Wind_Speed
5 4 5 5 6 6 5 3 3 4 5 5 4 4 5 6 5 5 5 6 6 7 6 7 10 9 7 6 6 7 8 9 13 15 16 17 20 19 17 15 16 16 15
5 4 5 5 5 5 3 3 3 4 4 4 4 3 4 4 4 5 6 6 6 8 9 7 9 8 10 9 7 10 10 11 12 18 16 16 17 17 20 20 16 14 16
5 5 5 5 5 4 2 2 2 3 4 5 5 3 4 5 5 5 5 6 6 6 7 8 10 11 11 10 10 9 10 10 12 14 15 14 16 15 16 16 16 18 15
5 5 6 6 5 4 2 1 2 2 4 4 3 4 4 5 5 5 5 6 6 7 7 8 9 11 12 13 11 12 12 13 13 14 15 15 16 14 14 14 15 12 15
6 5 5 6 5 4 3 0 1 2 2 2 3 5 4 4 3 5 5 6 6 7 8 8 9 15 22 17 11 13 15 14 13 14 15 16 15 14 15 12 15 12 14
6 5 5 5 5 6 4 3 3 3 3 3 4 4 5 4 9 11 10 5 7 7 9 10 9 17 16 23 23 26 23 17 18 15 15 16 21 17 16 15 13 12 13
5 4 5 6 5 6 5 4 5 5 3 5 6 5 7 6 10 10 12 4 6 7 8 9 9 9 17 13 20 26 23 26 26 20 20 17 22 19 20 16 15 14 13
4 4 4 4 3 4 4 6 5 4 6 6 7 7 6 6 12 11 12 6 6 8 7 9 9 12 13 17 17 17 16 16 16 14 18 20 20 21 21 17 17 15 12
4 4 4 4 4 4 5 6 5 4 5 6 6 7 6 8 12 13 9 5 6 9 9 10 9 11 18 24 16 17 17 16 18 28 30 29 32 33 29 11 11 10 10
4 5 5 5 5 6 6 6 4 4 6 5 7 7 10 8 11 13 11 4 6 7 9 9 17 16 22 23 15 15 15 17 20 20 18 19 22 22 30 15 11 10 8
5 5 5 5 6 6 5 3 5 6 5 6 6 7 7 6 8 13 13 5 5 6 7 7 8 21 23 23 22 11 16 20 21 15 16 14 15 16 14 9 14 11 9
6 6 5 5 4 4 5 5 6 5 4 6 6 7 6 5 8 11 11 13 12 4 7 7 8 19 22 23 18 23 25 22 11 12 12 14 14 15 15 10 13 13 11
5 7 7 6 6 4 4 6 4 2 3 6 4 5 6 4 5 12 11 13 12 7 5 10 17 17 19 15 21 24 21 11 11 12 13 12 15 14 16 11 9 12 12
7 8 7 6 7 6 4 4 4 4 4 5 5 4 4 3 4 5 5 5 10 9 11 7 11 13 16 16 14 13 10 10 11 11 13 12 13 14 13 12 4 6 7
8 10 8 6 7 6 6 6 5 6 6 4 4 4 3 5 5 7 5 5 5 7 9 3 4 4 8 9 10 11 10 11 11 12 12 12 11 12 15 13 9 6 7
10 9 8 8 8 7 3 6 6 9 12 8 11 7 3 8 11 12 12 12 12 13 2 3 4 5 6 8 9 10 10 14 11 11 11 12 12 12 12 14 11 9 9
8 10 9 7 6 2 2 2 4 8 10 5 6 4 5 8 9 11 11 10 8 5 3 4 6 6 6 6 7 9 8 9 12 10 11 12 12 11 13 12 11 10 11
7 12 6 4 4 3 2 2 3 3 3 4 5 4 6 7 8 8 8 5 5 5 2 4 6 7 6 5 6 8 8 8 9 10 10 11 11 10 10 10 10 8 8
4 4 3 3 2 2 3 3 1 2 1 2 3 5 6 8 8 8 6 2 2 3 4 5 5 6 6 5 4 6 8 7 7 8 9 9 10 11 10 9 9 9 8
3 5 3 3 2 1 1 3 3 2 2 2 2 2 4 4 4 3 3 2 3 4 5 5 6 6 6 6 4 5 6 8 7 7 8 8 9 9 9 9 8 8 7
2 2 4 3 2 3 3 4 2 1 2 2 2 2 4 1 3 3 3 4 4 5 5 5 6 6 5 6 4 5 6 6 8 8 8 8 7 7 8 8 7 7 6
3 3 2 3 3 4 4 3 1 1 2 2 3 3 4 2 3 4 4 4 5 5 5 5 6 5 6 6 5 4 5 6 8 9 8 7 7 7 7 7 7 6 5
3 3 3 2 4 5 3 2 1 1 2 3 3 3 3 3 4 4 5 5 5 5 5 5 5 6 5 5 4 4 4 6 6 8 8 6 6 5 6 6 7 6 6
2 3 3 4 4 3 3 3 2 2 2 3 4 4 4 4 5 5 5 5 5 6 6 5 5 8 7 5 6 5 4 4 6 7 10 7 6 6 6 6 6 7 5
4 3 4 4 4 4 3 3 3 3 3 3 4 4 4 5 5 5 5 5 5 6 7 6 5 7 8 9 9 8 5 8 9 7 6 7 7 10 6 5 6 5 6
4 4 5 4 4 4 4 4 5 4 4 4 4 4 5 5 5 5 5 5 6 6 8 6 8 10 10 8 9 9 10 10 8 8 6 6 5 5 5 4 7 3 5
Wind_Direction
131 125 119 96 70 63 60 24 11 31 25 35 57 30 23 18 11 7 342 333 342 319 312 321 309 321 320 311 300 286 280 277 274 288 295 301 299 296 295 290 286 285 283
133 136 138 124 110 94 58 18 25 34 28 39 51 23 357 353 332 338 335 332 328 321 314 305 297 311 318 301 286 284 281 279 277 283 287 299 291 290 291 290 289 283 287
136 140 150 135 122 117 80 43 35 28 29 33 40 357 344 336 332 321 314 316 310 301 299 299 295 303 312 302 293 288 294 295 289 290 290 288 289 293 285 274 279 281 274
146 139 144 149 154 161 175 97 62 26 38 23 14 359 357 329 324 312 309 306 304 313 299 296 287 305 302 301 309 310 307 303 300 293 291 292 294 291 277 279 273 266 280
124 130 146 160 171 183 203 207 356 33 7 347 350 350 335 309 291 323 313 309 307 308 305 298 297 302 314 309 311 312 311 307 302 298 295 296 293 293 279 274 269 273 271
129 129 134 170 187 206 225 250 289 304 316 326 316 300 307 285 299 320 341 324 316 309 304 304 294 305 301 311 310 312 312 311 303 299 294 293 292 292 282 266 260 261 278
129 144 150 170 194 218 229 256 276 283 282 282 284 280 288 292 298 303 322 315 301 288 284 292 302 305 311 301 303 312 306 301 299 298 293 289 289 289 286 269 247 242 253
154 167 193 204 203 219 238 252 268 269 267 269 275 268 277 286 298 297 302 300 290 285 281 288 289 297 298 310 311 308 302 299 298 296 292 291 288 287 277 258 244 245 255
188 221 237 223 236 251 255 260 256 252 268 255 254 276 262 281 290 292 301 292 297 299 300 299 298 302 302 312 318 310 305 302 305 304 298 301 297 293 287 243 229 227 245
250 258 260 251 238 251 257 270 252 234 266 280 280 250 253 257 282 291 302 280 294 301 299 294 301 306 314 317 320 314 308 312 314 310 309 308 305 301 304 230 214 219 228
232 239 241 245 245 252 272 247 264 267 267 275 271 282 271 246 279 287 298 293 268 289 292 295 296 307 317 323 323 312 311 314 312 310 314 311 314 315 317 231 212 212 220
220 233 248 254 254 241 247 280 278 263 284 288 296 294 284 283 282 276 292 300 303 282 289 288 291 305 320 322 325 319 322 327 314 317 317 320 320 319 313 293 208 208 218
240 246 244 253 259 224 239 267 295 269 258 279 277 273 275 314 294 290 302 305 312 314 283 286 305 315 319 322 323 331 332 324 325 325 326 326 324 319 315 325 201 201 218
238 248 246 233 249 248 243 238 250 272 281 267 272 265 272 294 288 288 288 312 321 321 313 306 301 317 315 318 327 330 329 328 332 327 329 327 324 334 342 348 346 125 112
239 250 246 228 233 240 231 225 228 245 205 245 253 233 243 281 259 245 277 306 300 283 298 298 313 316 322 328 337 337 336 339 337 337 334 336 339 343 347 351 359 35 85
235 244 244 244 243 241 277 323 226 254 281 239 241 221 244 238 274 295 303 318 326 321 330 304 303 306 311 323 333 337 342 341 337 338 336 340 344 348 355 350 7 29 50
246 260 260 256 260 197 193 180 348 306 297 0 30 48 223 272 313 314 321 329 328 354 355 308 302 297 301 310 321 332 331 334 337 342 340 340 344 349 355 4 6 12 32
255 258 255 244 197 205 228 219 198 246 316 321 345 2 349 347 339 341 342 6 347 357 307 303 308 306 297 303 313 325 330 332 341 347 345 344 344 346 355 359 360 7 21
279 259 240 195 178 177 145 137 116 288 292 287 318 343 356 350 344 345 17 44 291 305 309 311 300 313 303 295 302 323 331 335 328 341 345 341 344 343 351 357 357 2 5
262 259 184 134 149 157 352 68 87 56 357 343 347 309 328 8 358 324 324 311 314 308 307 306 308 301 313 302 295 317 327 337 340 342 342 340 340 343 344 345 355 353 356
252 102 121 123 109 98 109 105 87 39 351 330 305 288 283 252 309 303 311 312 305 303 300 300 302 302 301 312 296 315 321 333 341 339 337 338 338 336 337 336 347 349 355
99 130 114 109 108 100 109 97 65 9 339 321 302 293 336 348 319 307 303 303 298 292 286 290 300 297 298 309 301 309 325 326 333 338 334 332 329 330 333 336 343 355 352
110 117 116 123 132 133 121 149 140 277 301 312 295 289 309 305 296 290 291 292 298 300 299 298 298 307 305 312 308 294 311 314 328 325 316 320 322 326 333 332 338 345 352
136 155 166 161 158 167 182 182 194 260 305 308 299 284 285 289 286 283 286 292 298 301 299 294 298 307 313 302 319 286 307 336 323 310 312 306 311 318 322 321 323 328 328
187 185 175 183 192 206 216 215 221 242 266 283 292 285 285 286 287 288 292 292 293 299 299 299 294 298 301 310 315 304 320 309 311 305 304 299 302 306 306 301 300 315 324
213 204 204 204 208 217 213 226 238 241 251 271 278 283 282 281 282 287 292 295 298 293 292 293 298 297 301 305 303 306 314 306 304 305 294 288 293 293 289 286 293 297 307